Traverse City, MI

1:41 AM EDT on May 23, 2018 (GMT -0400)
Cherry Capital

Weather History for KTVC - October, 2013

Change the Weather History Date:

Sunday, October 20, 2013

  Actual Average Record
Temperature  
Mean Temperature 45 °F 47 °F  
Max Temperature 52 °F 56 °F 79 °F (1953)
Min Temperature 37 °F 38 °F 22 °F (1972)
Degree Days  
Heating Degree Days 20 18  
Month to date heating degree days 184 302  
Since 1 July heating degree days 399 564  
Cooling Degree Days 0 0  
Month to date cooling degree days 1 0  
Year to date cooling degree days 531 407  
Moisture  
Dew Point 37 °F    
Average Humidity 70    
Maximum Humidity 92    
Minimum Humidity 48    
Precipitation  
Precipitation 0.24 in 0.10 in 1.20 in (1923)
Month to date precipitation 5.11 2.10  
Year to date precipitation 28.60 26.74  
Sea Level Pressure  
Sea Level Pressure 29.76 in    
Wind  
Wind Speed 4 mph (SSW)    
Max Wind Speed 12 mph    
Max Gust Speed 17 mph    
Visibility 9 miles    
Events Rain    
T = Trace of Precipitation, MM = Missing Value Source: NWS Daily Summary

Daily Weather History Graph

Daily Weather History Graph

Search for Another Location

Airport or City:

Astronomy

Oct. 20, 2013 Rise Set
Actual Time 8:04 AM EDT 6:48 PM EDT
Civil Twilight 7:34 AM EDT 7:18 PM EDT
Nautical Twilight 7:00 AM EDT 7:52 PM EDT
Astronomical Twilight 6:26 AM EDT 8:26 PM EDT
Moon 7:52 PM EDT (10/20) 9:46 AM EDT (10/20)
Length of Visible Light 11h 43m
Length of Day
10h 44m
Full, 97% of the Moon is Illuminated
Oct 20
Full
Oct 26
Last Quarter
Nov 3
New
Nov 10
First Quarter
Nov 17
Full

Hourly Weather History & Observations

Time (EDT) Temp. Windchill Dew Point Humidity Pressure Visibility Wind Dir Wind Speed Gust Speed Precip Events Conditions
12:53 AM 39.9 °F 37.8 °F 36.0 °F 86% 29.73 in 10.0 mi SSE 3.5 mph - 0.00 in   Clear
1:53 AM 39.0 °F - 36.0 °F 89% 29.73 in 10.0 mi Calm Calm - N/A   Partly Cloudy
2:53 AM 39.0 °F - 36.0 °F 89% 29.73 in 10.0 mi Calm Calm - N/A   Scattered Clouds
3:53 AM 39.9 °F 37.8 °F 37.0 °F 89% 29.73 in 10.0 mi South 3.5 mph - 0.00 in   Mostly Cloudy
4:53 AM 39.0 °F 35.7 °F 37.0 °F 93% 29.74 in 10.0 mi SSW 4.6 mph - N/A   Mostly Cloudy
5:53 AM 39.0 °F 35.7 °F 37.0 °F 93% 29.75 in 10.0 mi SSW 4.6 mph - N/A   Scattered Clouds
6:53 AM 37.9 °F 35.5 °F 36.0 °F 93% 29.76 in 10.0 mi South 3.5 mph - N/A   Partly Cloudy
7:53 AM 37.9 °F 35.5 °F 36.0 °F 93% 29.77 in 10.0 mi SSW 3.5 mph - N/A   Partly Cloudy
8:53 AM 39.0 °F - 35.1 °F 86% 29.79 in 10.0 mi Calm Calm - N/A   Scattered Clouds
9:53 AM 42.1 °F 37.1 °F 37.0 °F 82% 29.81 in 10.0 mi SSW 8.1 mph - N/A   Scattered Clouds
10:53 AM 46.0 °F 42.5 °F 37.9 °F 73% 29.82 in 10.0 mi WSW 6.9 mph - N/A   Scattered Clouds
11:53 AM 48.9 °F - 36.0 °F 61% 29.83 in 10.0 mi West 6.9 mph - N/A   Mostly Cloudy
12:53 PM 50.0 °F - 34.0 °F 54% 29.83 in 10.0 mi West 9.2 mph 16.1 mph N/A   Mostly Cloudy
1:53 PM 51.1 °F - 33.1 °F 50% 29.82 in 10.0 mi Variable 6.9 mph - N/A   Mostly Cloudy
2:53 PM 51.1 °F - 33.1 °F 50% 29.80 in 10.0 mi WSW 10.4 mph 16.1 mph N/A   Overcast
3:53 PM 52.0 °F - 33.1 °F 49% 29.80 in 10.0 mi WSW 4.6 mph - N/A   Overcast
4:53 PM 51.1 °F - 32.0 °F 48% 29.79 in 10.0 mi South 3.5 mph - N/A   Overcast
5:53 PM 51.1 °F - 34.0 °F 52% 29.78 in 10.0 mi Calm Calm - N/A   Overcast
6:53 PM 48.9 °F - 37.0 °F 64% 29.77 in 10.0 mi Calm Calm - 0.00 in Rain Light Rain
7:53 PM 46.0 °F 44.8 °F 41.0 °F 83% 29.77 in 8.0 mi South 3.5 mph - 0.05 in Rain Light Rain
8:53 PM 46.0 °F - 41.0 °F 83% 29.75 in 7.0 mi Calm Calm - 0.02 in Rain Light Rain
9:53 PM 45.0 °F - 42.1 °F 90% 29.72 in 7.0 mi Calm Calm - 0.04 in Rain Light Rain
10:53 PM 45.0 °F 43.5 °F 43.0 °F 93% 29.69 in 4.0 mi Variable 3.5 mph - 0.07 in Rain Light Rain
11:08 PM 46.4 °F 45.2 °F 42.8 °F 87% 29.67 in 5.0 mi Variable 3.5 mph - 0.02 in Rain Light Rain
11:53 PM 46.9 °F - 44.1 °F 90% 29.66 in 10.0 mi Variable 3.5 mph - 0.06 in   Overcast